Zurück zum Katalog

WEILI KONGJIAN 05-06

AktivNavigationLEO
NORAD 69587·PAYLOAD·🇨🇳 China
Dieser Satellitenname wurde noch nicht durch offizielle Quellen bestätigt.

Gestartet Jun 17, 2026 von Jiuquan Satellite Launch Center

Loading…

Nächste Überflüge (nächste 24 Stunden)

TLE

AktuellSource: Space-Track

Epoche: Sep 14, 2026, 10:39 UTC

1 69587U 26138F   26257.44433149  .00000080  00000-0  13453-3 0  9996
2 69587  55.1425 311.9932 0007934 242.1187 117.8980 14.08290009 12656

Verfolge WEILI KONGJIAN 05-06 in Echtzeit mit AllMySat

Download on the App Store